Regional Weather Roundup
Issued by NWS

Home | Current Version | Previous Version | Graphics & Text | Print | Product List | Glossary On
Versions: 1 2 3 4 5 6 7 8 9 10 11 12 13 14 15 16 17 18 19 20 21 22 23 24 25 26 27 28 29 30 31 32 33 34 35 36 37 38 39 40 41 42 43 44 45 46 47 48 49 50
000
ASUS43 KBIS 240702
RWRND

NORTH DAKOTA REGIONAL WEATHER ROUNDUP
NATIONAL WEATHER SERVICE BISMARCK ND
100 AM CST FRI NOV 24 2017

NOTE: "FAIR" INDICATES FEW OR NO CLOUDS BELOW 12,000 FEET WITH NO
SIGNIFICANT WEATHER AND/OR OBSTRUCTIONS TO VISIBILITY.


NDZ001>003-009>011-017-240800-
NORTHWEST NORTH DAKOTA

CITY           SKY/WX    TMP DP  RH WIND       PRES   REMARKS
WILLISTON      CLOUDY    52  44  74 W18       29.38R
MINOT          CLEAR     53  37  54 SW15      29.29F
MINOT AFB      PTCLDY    40  33  78 W8        29.27F
$$

NDZ018>021-031>035-040>046-240800-
SOUTHWEST NORTH DAKOTA

CITY           SKY/WX    TMP DP  RH WIND       PRES   REMARKS
BISMARCK       CLOUDY    55  36  48 W6        29.38F
DICKINSON      CLEAR     51  35  54 SW16      29.39F
GARRISON         N/A     47  37  68 W12       29.33F
HETTINGER ARPT CLEAR     50  33  52 W10       29.48F
$$

NDZ004>008-012>016-024-026-027-054-240800-
NORTHEAST NORTH DAKOTA

CITY           SKY/WX    TMP DP  RH WIND       PRES   REMARKS
GRAND FORKS    PTCLDY    41  35  79 S12       29.24F
GRND FRKS AFB  CLOUDY    46  35  66 W16       29.25F
DEVILS LAKE    PTCLDY    44  36  73 SW15      29.28F
$$

NDZ022-023-025-028>030-036>039-047>053-240800-
SOUTHEAST NORTH DAKOTA

CITY           SKY/WX    TMP DP  RH WIND       PRES   REMARKS
FARGO          CLOUDY    48  38  68 SW14      29.32F
JAMESTOWN      PTCLDY    52  37  56 SW13      29.33F
$$





USA.gov is the U.S. government's official web portal to all federal, state and local government web resources and services.